Skip Page Navigation
NASA JPL Caltech
NASA Logo - Jet Propulsion Laboratory + View the NASA Portal
+ Center for Near-Earth Object Studies
JPL Home Earth Solar System Stars & Galaxies Technology
JPL Solar System Dynamics
BODIES ORBITS EPHEMERIDES TOOLS PHYSICAL DATA DISCOVERY FAQ SITE MAP
JPL Small-Body Database Browser
Search: [ help ]  
379431 (2010 CU25)
Classification: Main-belt Asteroid          SPK-ID: 2379431
Ephemeris | Orbit Diagram | Orbital Elements | Mission Design | Physical Parameters | Discovery Circumstances | Close-Approach Data ]

[ show orbit diagram ]
Orbital Elements at Epoch 2459000.5 (2020-May-31.0) TDB
Reference: JPL 13 (heliocentric ecliptic J2000)
 Element Value Uncertainty (1-sigma)   Units 
e .1049400570994875 8.6168e-08  
a 3.056389171247433 5.1014e-08 au
q 2.735651517098472 2.4617e-07 au
i 2.991246691235354 8.343e-06 deg
node 321.3647784256674 0.00015733 deg
peri 233.7888936498724 0.0001622 deg
M 286.0107896781408 4.0933e-05 deg
tp 2459401.622752497148
(2021-Jul-06.12275250)
0.00022667 TDB
period 1951.692554506298
5.34
4.8863e-05
1.338e-07
d
yr
n .1844552817342001 4.6181e-09 deg/d
Q 3.377126825396394 5.6367e-08 au
  Orbit Determination Parameters
   # obs. used (total)      114  
   data-arc span      6300 days (17.25 yr)  
   first obs. used      2002-10-05  
   last obs. used      2020-01-04  
   planetary ephem.      DE431  
   SB-pert. ephem.      SB431-N16  
   condition code      0  
   norm. resid. RMS      .54761  
   source      ORB  
   producer      Otto Matic  
   solution date      2020-Jan-30 09:35:52  

Additional Information
 Earth MOID = 1.73597 au 
 Jupiter MOID = 1.59916 au 
 T_jup = 3.225 
[ show covariance matrix ]

Ephemeris | Orbit Diagram | Orbital Elements | Mission Design | Physical Parameters | Discovery Circumstances | Close-Approach Data ]

Physical Parameter Table
Parameter Symbol Value Units Sigma Reference Notes
absolute magnitude H 16.4   n/a MPO418930  
diameter diameter 3.599 km 0.716 urn:nasa:pds:neowise_diameters_albedos::2.0[mainbelt] (http://adsabs.harvard.edu/abs/2011ApJ...741...68M)  
geometric albedo albedo 0.041   0.005 urn:nasa:pds:neowise_diameters_albedos::2.0[mainbelt] (http://adsabs.harvard.edu/abs/2011ApJ...741...68M)  

379431 (2010 CU25)          Discovered 2010-Feb-09 by Mt. Lemmon Survey at Mount Lemmon
Reference: Last Updated: 2013-11-20

[ show close-approach data ]
Alternate Designations
 2010 CU25 = 2005 GJ124 = 2005 JV82 
Ephemeris | Orbit Diagram | Orbital Elements | Mission Design | Physical Parameters | Discovery Circumstances | Close-Approach Data ]
ABOUT SSD CREDITS/AWARDS PRIVACY/COPYRIGHT GLOSSARY LINKS
FirstGov 2020-Aug-10 06:55 UT
(server date/time)  
NASA Home Page
Site Manager:   Ryan S. Park
Webmaster  Alan B. Chamberlin